H1 CPF 2 NER 2023 8 10 9 222 01 glonass116 H2 0907001 9116 36111 2023 8 10 0 0 0 2023 8 13 23 45 0 900 1 1 0 0 0 1 H9 10 0 60166 0.00000 0 -660187.819 12761596.525 -22076917.884 10 0 60166 900.00000 0 -2849234.807 14263859.030 -20953822.653 10 0 60166 1800.00000 0 -4794001.907 15821782.603 -19423761.383 10 0 60166 2700.00000 0 -6461511.789 17377449.313 -17516394.122 10 0 60166 3600.00000 0 -7830820.593 18869421.650 -15268719.275 10 0 60166 4500.00000 0 -8893633.095 20235297.575 -12724359.959 10 0 60166 5400.00000 0 -9654387.034 21414327.514 -9932720.200 10 0 60166 6300.00000 0 -10129803.870 22349983.447 -6948026.873 10 0 60166 7200.00000 0 -10347925.586 22992371.749 -3828275.805 10 0 60166 8100.00000 0 -10346678.950 23300387.759 -634102.546 10 0 60166 9000.00000 0 -10172028.655 23243520.679 2572399.959 10 0 60166 9900.00000 0 -9875798.256 22803231.983 5728893.227 10 0 60166 10800.00000 0 -9513251.991 21973848.481 8774010.412 10 0 60166 11700.00000 0 -9140540.747 20762931.690 11648554.402 10 0 60166 12600.00000 0 -8812121.149 19191107.358 14296652.827 10 0 60166 13500.00000 0 -8578257.798 17291361.789 16666846.985 10 0 60166 14400.00000 0 -8482715.008 15107834.149 18713093.229 10 0 60166 15300.00000 0 -8560736.135 12694155.087 20395657.201 10 0 60166 16200.00000 0 -8837396.270 10111400.976 21681883.756 10 0 60166 17100.00000 0 -9326398.065 7425748.962 22546827.959 10 0 60166 18000.00000 0 -10029361.669 4705930.347 22973735.402 10 0 60166 18900.00000 0 -10935638.868 2020587.939 22954363.081 10 0 60166 19800.00000 0 -12022659.436 -564353.274 22489135.153 10 0 60166 20700.00000 0 -13256795.423 -2988193.535 21587130.973 10 0 60166 21600.00000 0 -14594707.362 -5197740.509 20265905.942 10 0 60166 22500.00000 0 -15985116.296 -7149272.479 18551148.750 10 0 60166 23400.00000 0 -17370927.587 -8810102.071 16476181.642 10 0 60166 24300.00000 0 -18691617.793 -10159676.693 14081313.211 10 0 60166 25200.00000 0 -19885784.708 -11190171.199 11413056.056 10 0 60166 26100.00000 0 -20893753.724 -11906549.393 8523224.212 10 0 60166 27000.00000 0 -21660131.115 -12326093.161 5467927.701 10 0 60166 27900.00000 0 -22136196.950 -12477420.306 2306483.557 10 0 60166 28800.00000 0 -22282036.846 -12399033.537 -899735.481 10 0 60166 29700.00000 0 -22068322.683 -12137462.717 -4088492.185 10 0 60166 30600.00000 0 -21477667.037 -11745079.578 -7197892.671 10 0 60166 31500.00000 0 -20505493.941 -11277677.802 -10167587.181 10 0 60166 32400.00000 0 -19160388.892 -10791921.140 -12939940.334 10 0 60166 33300.00000 0 -17463912.811 -10342767.721 -15461148.102 10 0 60166 34200.00000 0 -15449887.126 -9980979.498 -17682279.847 10 0 60166 35100.00000 0 -13163179.208 -9750822.109 -19560225.402 10 0 60166 36000.00000 0 -10658038.112 -9688052.230 -21058529.185 10 0 60166 36900.00000 0 -7996049.279 -9818277.355 -22148095.526 10 0 60166 37800.00000 0 -5243792.501 -10155757.252 -22807752.002 10 0 60166 38700.00000 0 -2470299.634 -10702697.818 -23024660.215 10 0 60166 39600.00000 0 255583.181 -11449067.483 -22794566.302 10 0 60166 40500.00000 0 2867820.217 -12372944.509 -22121886.373 10 0 60166 41400.00000 0 5305689.690 -13441381.360 -21019625.073 10 0 60166 42300.00000 0 7516063.009 -14611750.708 -19509128.455 10 0 60166 43200.00000 0 9455365.785 -15833517.401 -17619675.412 10 0 60166 44100.00000 0 11091139.777 -17050362.787 -15387914.904 10 0 60166 45000.00000 0 12403141.324 -18202572.683 -12857159.215 10 0 60166 45900.00000 0 13383931.089 -19229588.989 -10076546.331 10 0 60166 46800.00000 0 14038931.109 -20072617.658 -7100087.206 10 0 60166 47700.00000 0 14385947.454 -20677182.967 -3985616.216 10 0 60166 48600.00000 0 14454179.330 -20995519.965 -793665.209 10 0 60166 49500.00000 0 14282757.151 -20988703.562 2413716.703 10 0 60166 50400.00000 0 13918872.138 -20628423.530 5574174.096 10 0 60166 51300.00000 0 13415577.313 -19898329.696 8626262.732 10 0 60166 52200.00000 0 12829353.792 -18794889.639 11510649.222 10 0 60166 53100.00000 0 12217546.112 -17327721.903 14171268.777 10 0 60166 54000.00000 0 11635775.852 -15519389.952 16556418.028 10 0 60166 54900.00000 0 11135443.531 -13404664.822 18619761.306 10 0 60166 55800.00000 0 10761424.771 -11029286.906 20321230.716 10 0 60166 56700.00000 0 10550058.322 -8448278.195 21627802.662 10 0 60166 57600.00000 0 10527510.897 -5723875.093 22514136.102 10 0 60166 58500.00000 0 10708587.737 -2923167.595 22963060.618 10 0 60166 59400.00000 0 11096038.887 -115542.675 22965905.392 10 0 60166 60300.00000 0 11680390.231 2629962.407 22522663.257 10 0 60166 61200.00000 0 12440306.292 5247287.490 21641987.059 10 0 60166 62100.00000 0 13343469.487 7675849.345 20341018.722 10 0 60166 63000.00000 0 14347938.930 9862811.006 18645054.452 10 0 60166 63900.00000 0 15403931.759 11765027.362 16587052.541 10 0 60166 64800.00000 0 16455952.251 13350587.180 14206993.162 10 0 60166 65700.00000 0 17445179.383 14599888.603 11551102.337 10 0 60166 66600.00000 0 18312012.490 15506204.459 8670954.891 10 0 60166 67500.00000 0 18998667.963 16075715.031 5622473.602 10 0 60166 68400.00000 0 19451717.605 16327008.189 2464843.854 10 0 60166 69300.00000 0 19624461.562 16290068.975 -740635.144 10 0 60166 70200.00000 0 19479035.619 16004802.235 -3931740.144 10 0 60166 71100.00000 0 18988163.684 15519151.364 -7046531.428 10 0 60166 72000.00000 0 18136481.194 14886893.216 -10024554.490 10 0 60166 72900.00000 0 16921373.113 14165202.734 -12808012.330 10 0 60166 73800.00000 0 15353290.636 13412090.397 -15342885.592 10 0 60166 74700.00000 0 13455532.479 12683820.809 -17579978.779 10 0 60166 75600.00000 0 11263499.038 12032421.311 -19475872.487 10 0 60166 76500.00000 0 8823449.663 11503385.576 -20993763.491 10 0 60166 77400.00000 0 6190813.912 11133668.800 -22104176.783 10 0 60166 78300.00000 0 3428126.116 10950058.734 -22785536.178 10 0 60166 79200.00000 0 602668.111 10967991.020 -23024582.833 10 0 60166 80100.00000 0 -2216082.947 11190858.697 -22816633.787 10 0 60166 81000.00000 0 -4959096.740 11609845.063 -22165675.618 10 0 60166 81900.00000 0 -7560413.243 12204287.283 -21084291.243 10 0 60166 82800.00000 0 -9959639.424 12942555.926 -19593420.928 10 0 60166 83700.00000 0 -12104216.302 13783414.029 -17721961.615 10 0 60166 84600.00000 0 -13951362.781 14677799.106 -15506211.623 10 0 60166 85500.00000 0 -15469615.916 15570953.598 -12989170.846 10 0 60167 0.00000 0 -16639903.813 16404814.339 -10219709.612 10 0 60167 900.00000 0 -17456107.424 17120560.859 -7251620.308 10 0 60167 1800.00000 0 -17925086.730 17661213.811 -4142573.740 10 0 60167 2700.00000 0 -18066172.905 17974174.901 -952995.517 10 0 60167 3600.00000 0 -17910146.824 18013599.303 2255111.764 10 0 60167 4500.00000 0 -17497748.401 17742499.925 5419378.529 10 0 60167 5400.00000 0 -16877780.285 17134493.608 8478286.038 10 0 60167 6300.00000 0 -16104886.849 16175114.509 11372367.554 10 0 60167 7200.00000 0 -15237103.096 14862638.225 14045368.817 10 0 60167 8100.00000 0 -14333277.789 13208381.001 16445344.665 10 0 60167 9000.00000 0 -13450480.247 11236460.518 18525670.158 10 0 60167 9900.00000 0 -12641500.720 8983027.552 20245946.404 10 0 60167 10800.00000 0 -11952550.019 6495000.013 21572783.614 10 0 60167 11700.00000 0 -11421255.340 3828351.637 22480446.546 10 0 60167 12600.00000 0 -11075036.535 1046026.229 22951350.261 10 0 60167 13500.00000 0 -10929930.798 -1784436.278 22976397.150 10 0 60167 14400.00000 0 -10989914.757 -4593463.782 22555149.225 10 0 60167 15300.00000 0 -11246752.031 -7312100.097 21695832.789 10 0 60167 16200.00000 0 -11680372.189 -9874627.902 20415175.701 10 0 60167 17100.00000 0 -12259764.815 -12221058.491 18738080.531 10 0 60167 18000.00000 0 -12944350.822 -14299385.717 16697139.935 10 0 60167 18900.00000 0 -13685773.136 -16067511.421 14332003.489 10 0 60167 19800.00000 0 -14430031.265 -17494763.230 11688608.034 10 0 60167 20700.00000 0 -15119869.792 -18562942.481 8818286.227 10 0 60167 21600.00000 0 -15697320.069 -19266859.612 5776770.388 10 0 60167 22500.00000 0 -16106287.816 -19614335.723 2623110.839 10 0 60167 23400.00000 0 -16295077.295 -19625671.271 -581470.246 10 0 60167 24300.00000 0 -16218745.287 -19332605.194 -3774767.150 10 0 60167 25200.00000 0 -15841185.168 -18776809.132 -6894797.870 10 0 60167 26100.00000 0 -15136852.679 -18007980.814 -9881006.621 10 0 60167 27000.00000 0 -14092060.074 -17081617.554 -12675438.139 10 0 60167 27900.00000 0 -12705783.368 -16056563.999 -15223860.873 10 0 60167 28800.00000 0 -10989947.953 -14992437.694 -17476817.318 10 0 60167 29700.00000 0 -8969179.562 -13947040.895 -19390581.289 10 0 60167 30600.00000 0 -6680029.960 -12973867.454 -20928003.889 10 0 60167 31500.00000 0 -4169708.566 -12119809.394 -22059232.172 10 0 60167 32400.00000 0 -1494371.707 -11423159.284 -22762286.984 10 0 60167 33300.00000 0 1282960.508 -10911991.972 -23023489.198 10 0 60167 34200.00000 0 4094774.254 -10602993.379 -22837726.321 10 0 60167 35100.00000 0 6871621.722 -10500785.310 -22208554.416 10 0 60167 36000.00000 0 9544765.316 -10597774.549 -21148133.214 10 0 60167 36900.00000 0 12048797.472 -10874532.650 -19676995.323 10 0 60167 37800.00000 0 14324128.089 -11300690.629 -17823653.486 10 0 60167 38700.00000 0 16319236.852 -11836311.165 -15624052.807 10 0 60167 39600.00000 0 17992597.169 -12433680.797 -13120877.887 10 0 60167 40500.00000 0 19314191.947 -13039446.790 -10362727.681 10 0 60167 41400.00000 0 20266558.234 -13597008.552 -7403173.556 10 0 60167 42300.00000 0 20845317.350 -14049062.511 -4299718.609 10 0 60167 43200.00000 0 21059168.632 -14340192.522 -1112678.440 10 0 60167 44100.00000 0 20929347.520 -14419395.691 2095994.633 10 0 60167 45000.00000 0 20488571.320 -14242435.971 5263920.524 10 0 60167 45900.00000 0 19779517.687 -13773925.052 8329509.356 10 0 60167 46800.00000 0 18852900.707 -12989041.514 11233164.051 10 0 60167 47700.00000 0 17765226.459 -11874814.517 13918443.406 10 0 60167 48600.00000 0 16576323.463 -10430916.821 16333162.488 10 0 60167 49500.00000 0 15346752.778 -8669932.674 18430408.576 10 0 60167 50400.00000 0 14135207.363 -6617088.372 20169452.721 10 0 60167 51300.00000 0 12996010.493 -4309455.925 21516539.374 10 0 60167 52200.00000 0 11976818.493 -1794662.358 22445539.030 10 0 60167 53100.00000 0 11116624.174 870842.144 22938451.721 10 0 60167 54000.00000 0 10444144.378 3623885.716 22985752.116 10 0 60167 54900.00000 0 9976658.738 6396959.131 22586570.114 10 0 60167 55800.00000 0 9719347.655 9120784.445 21748703.850 10 0 60167 56700.00000 0 9665156.514 11726961.959 20488465.216 10 0 60167 57600.00000 0 9795191.070 14150586.281 18830361.024 10 0 60167 58500.00000 0 10079626.708 16332723.506 16806615.995 10 0 60167 59400.00000 0 10479092.763 18222647.366 14456546.676 10 0 60167 60300.00000 0 10946473.168 19779742.063 11825798.197 10 0 60167 61200.00000 0 11429047.200 20974993.354 8965458.441 10 0 60167 62100.00000 0 11870879.774 21792006.490 5931066.621 10 0 60167 63000.00000 0 12215360.147 22227509.354 2781535.349 10 0 60167 63900.00000 0 12407781.576 22291320.565 -421992.860 10 0 60167 64800.00000 0 12397852.666 22005784.727 -3617332.346 10 0 60167 65700.00000 0 12142033.943 21404699.304 -6742461.178 10 0 60167 66600.00000 0 11605600.506 20531778.907 -9736724.456 10 0 60167 67500.00000 0 10764343.146 19438722.121 -12542010.539 10 0 60167 68400.00000 0 9605835.475 18182962.584 -15103877.308 10 0 60167 69300.00000 0 8130212.894 16825199.142 -17372606.606 10 0 60167 70200.00000 0 6350429.675 15426808.962 -19304166.574 10 0 60167 71100.00000 0 4291982.214 14047252.150 -20861063.555 10 0 60167 72000.00000 0 1992108.879 12741576.609 -22013067.401 10 0 60167 72900.00000 0 -501501.493 11558127.385 -22737796.568 10 0 60167 73800.00000 0 -3132439.896 10536556.074 -23021152.059 10 0 60167 74700.00000 0 -5837675.593 9706213.255 -22857592.061 10 0 60167 75600.00000 0 -8549936.667 9084990.783 -22250242.078 10 0 60167 76500.00000 0 -11200275.012 8678662.088 -21210838.297 10 0 60167 77400.00000 0 -13720710.191 8480747.799 -19759504.970 10 0 60167 78300.00000 0 -16046843.178 8472912.134 -17924369.580 10 0 60167 79200.00000 0 -18120331.993 8625873.261 -15741022.611 10 0 60167 80100.00000 0 -19891126.577 8900789.268 -13251831.685 10 0 60167 81000.00000 0 -21319370.113 9251061.305 -10505122.709 10 0 60167 81900.00000 0 -22376887.527 9624477.708 -7554243.416 10 0 60167 82800.00000 0 -23048199.039 9965608.319 -4456527.186 10 0 60167 83700.00000 0 -23331016.392 10218347.372 -1272177.252 10 0 60167 84600.00000 0 -23236201.118 10328496.792 1936906.804 10 0 60167 85500.00000 0 -22787186.831 10246279.757 5108336.941 10 0 60168 0.00000 0 -22018890.376 9928677.268 8180454.521 10 0 60168 900.00000 0 -20976157.700 9341487.571 11093535.384 10 0 60168 1800.00000 0 -19711811.623 8461020.727 13790953.851 10 0 60168 2700.00000 0 -18284383.000 7275355.080 16220287.922 10 0 60168 3600.00000 0 -16755622.335 5785101.910 18334339.675 10 0 60168 4500.00000 0 -15187896.699 4003644.911 20092052.497 10 0 60168 5400.00000 0 -13641581.730 1956843.484 21459307.180 10 0 60168 6300.00000 0 -12172558.292 -317788.628 22409581.706 10 0 60168 7200.00000 0 -10829918.669 -2772395.810 22924462.414 10 0 60168 8100.00000 0 -9653978.019 -5350530.157 22993997.149 10 0 60168 9000.00000 0 -8674673.683 -7989265.976 22616884.125 10 0 60168 9900.00000 0 -7910418.578 -10621591.875 21800493.273 10 0 60168 10800.00000 0 -7367455.696 -13178981.645 20560720.015 10 0 60168 11700.00000 0 -7039739.702 -15594037.725 18921674.445 10 0 60168 12600.00000 0 -6909349.578 -17803097.997 16915211.943 10 0 60168 13500.00000 0 -6947414.009 -19748698.112 14580314.215 10 0 60168 14400.00000 0 -7115509.768 -21381787.501 11962332.504 10 0 60168 15300.00000 0 -7367473.493 -22663607.317 9112107.440 10 0 60168 16200.00000 0 -7651549.911 -23567152.565 6084982.402 10 0 60168 17100.00000 0 -7912785.359 -24078157.943 2939729.373 10 0 60168 18000.00000 0 -8095565.087 -24195566.728 -262591.826 10 0 60168 18900.00000 0 -8146186.711 -23931463.684 -3459818.734 10 0 60168 19800.00000 0 -8015360.641 -23310475.364 -6589892.686 10 0 60168 20700.00000 0 -7660531.320 -22368663.519 -9592062.880 10 0 60168 21600.00000 0 -7047920.703 -21151958.527 -12408064.489 10 0 60168 22500.00000 0 -6154207.067 -19714198.992 -14983247.926 10 0 60168 23400.00000 0 -4967767.639 -18114860.034 -17267637.297 10 0 60168 24300.00000 0 -3489431.823 -16416565.677 -19216897.717 10 0 60168 25200.00000 0 -1732712.339 -14682489.503 -20793193.041 10 0 60168 26100.00000 0 276496.625 -12973752.273 -21965917.736 10 0 60168 27000.00000 0 2500742.894 -11346925.014 -22712289.165 10 0 60168 27900.00000 0 4892328.457 -9851741.491 -23017789.218 10 0 60168 28800.00000 0 7395056.941 -8529115.132 -22876446.983 10 0 60168 29700.00000 0 9946345.042 -7409542.669 -22290957.119 10 0 60168 30600.00000 0 12479611.355 -6511960.573 -21272631.523 10 0 60168 31500.00000 0 14926844.351 -5843101.597 -19841184.903 10 0 60168 32400.00000 0 17221243.645 -5397377.802 -18024357.891 10 0 60168 33300.00000 0 19299825.343 -5157294.554 -15857384.349 10 0 60168 34200.00000 0 21105883.374 -5094377.698 -13382312.491 10 0 60168 35100.00000 0 22591204.416 -5170574.576 -10647192.349 10 0 60168 36000.00000 0 23717943.953 -5340069.482 -7705144.793 10 0 60168 36900.00000 0 24460084.910 -5551436.546 -4613329.923 10 0 60168 37800.00000 0 24804417.616 -5750038.536 -1431834.804 10 0 60168 38700.00000 0 24750999.895 -5880569.506 1777497.640 10 0 60168 39600.00000 0 24313077.902 -5889632.826 4952275.299 10 0 60168 40500.00000 0 23516471.139 -5728244.556 8030775.027 10 0 60168 41400.00000 0 22398447.762 -5354155.137 10953147.891 10 0 60168 42300.00000 0 21006137.853 -4733890.074 13662587.291 10 0 60168 43200.00000 0 19394551.881 -3844422.243 16106436.685 10 0 60168 44100.00000 0 17624288.119 -2674404.119 18237214.967 10 0 60168 45000.00000 0 15759025.801 -1224906.940 20013539.351 10 0 60168 45900.00000 0 13862909.506 490365.273 21400927.945 10 0 60168 46800.00000 0 11997934.562 2445396.770 22372466.705 10 0 60168 47700.00000 0 10221442.838 4602703.598 22909328.278 10 0 60168 48600.00000 0 8583833.307 6914665.141 23001133.228 10 0 60168 49500.00000 0 7126582.455 9325288.850 22646147.181 10 0 60168 50400.00000 0 5880656.392 11772335.316 21851310.539 10 0 60168 51300.00000 0 4865379.940 14189715.811 20632100.542 10 0 60168 52200.00000 0 4087808.795 16510063.200 19012228.510 10 0 60168 53100.00000 0 3542629.766 18667369.730 17023178.146 10 0 60168 54000.00000 0 3212592.025 20599582.442 14703593.743 10 0 60168 54900.00000 0 3069450.074 22251048.577 12098529.911 10 0 60168 55800.00000 0 3075377.759 23574709.385 9258577.155 10 0 60168 56700.00000 0 3184792.854 24533951.208 6238880.068 10 0 60168 57600.00000 0 3346514.524 25104036.804 3098067.030 10 0 60168 58500.00000 0 3506161.944 25273057.380 -102887.792 10 0 60168 59400.00000 0 3608692.162 25042365.796 -3301847.991 10 0 60168 60300.00000 0 3600969.441 24426473.129 -6436720.871 10 0 60168 61200.00000 0 3434256.943 23452413.221 -9446662.193 10 0 60168 62100.00000 0 3066524.973 22158602.164 -12273256.133 10 0 60168 63000.00000 0 2464477.694 20593240.765 -14861647.509 10 0 60168 63900.00000 0 1605212.171 18812327.086 -17161604.251 10 0 60168 64800.00000 0 477439.063 16877362.351 -19128489.715 10 0 60168 65700.00000 0 -917787.313 14852846.095 -20724126.269 10 0 60168 66600.00000 0 -2566861.244 12803665.076 -21917533.761 10 0 60168 67500.00000 0 -4443950.113 10792484.596 -22685529.011 10 0 60168 68400.00000 0 -6511838.881 8877250.595 -23013175.116 10 0 60168 69300.00000 0 -8723260.631 7108906.118 -22894072.135 10 0 60168 70200.00000 0 -11022659.076 5529416.645 -22330483.664 10 0 60168 71100.00000 0 -13348310.900 4170185.938 -21333296.753 10 0 60168 72000.00000 0 -15634720.734 3050927.766 -19921815.655 10 0 60168 72900.00000 0 -17815189.998 2179039.935 -18123392.880 10 0 60168 73800.00000 0 -19824453.390 1549506.110 -15972904.062 10 0 60168 74700.00000 0 -21601273.524 1145328.962 -13512076.127 10 0 60168 75600.00000 0 -23090885.691 938475.821 -10788681.119 10 0 60168 76500.00000 0 -24247190.512 891296.515 -7855610.779 10 0 60168 77400.00000 0 -25034602.528 958353.041 -4769849.539 10 0 60168 78300.00000 0 -25429476.893 1088583.199 -1591365.811 10 0 60168 79200.00000 0 -25421053.963 1227705.998 1618056.700 10 0 60168 80100.00000 0 -25011881.746 1320766.228 4796024.454 10 0 60168 81000.00000 0 -24217698.224 1314709.570 7880752.236 10 0 60168 81900.00000 0 -23066778.433 1160878.170 10812269.625 10 0 60168 82800.00000 0 -21598773.785 817320.029 13533591.552 10 0 60168 83700.00000 0 -19863092.663 250813.431 15991829.581 10 0 60168 84600.00000 0 -17916890.554 -561480.157 18139221.895 10 0 60168 85500.00000 0 -15822754.410 -1630805.423 19934061.763 10 0 60169 0.00000 0 -13646178.715 -2956096.625 21341506.391 10 0 60169 900.00000 0 -11452937.849 -4523786.801 22334251.455 10 0 60169 1800.00000 0 -9306467.470 -6308149.796 22893056.832 10 0 60169 2700.00000 0 -7265360.076 -8272163.869 23007116.425 10 0 60169 3600.00000 0 -5381081.554 -10368859.818 22674263.456 10 0 60169 4500.00000 0 -3696002.016 -12543098.615 21901008.568 10 0 60169 5400.00000 0 -2241822.158 -14733704.953 20702410.198 10 0 60169 6300.00000 0 -1038459.551 -16875868.313 19101779.895 10 0 60169 7200.00000 0 -93440.073 -18903711.986 17130228.337 10 0 60169 8100.00000 0 598181.541 -20752923.391 14826060.721 10 0 60169 9000.00000 0 1053370.054 -22363336.351 12234033.030 10 0 60169 9900.00000 0 1300147.272 -23681357.829 9404483.375 10 0 60169 10800.00000 0 1376160.410 -24662137.935 6392355.063 10 0 60169 11700.00000 0 1326842.613 -25271392.647 3256130.188 10 0 60169 12600.00000 0 1203244.079 -25486803.030 56694.449 10 0 60169 13500.00000 0 1059626.104 -25298932.435 -3143844.703 10 0 60169 14400.00000 0 950920.334 -24711623.282 -6283363.509 10 0 60169 15300.00000 0 930161.184 -23741856.861 -9300927.282 10 0 60169 16200.00000 0 1046000.448 -22419082.052 -12137972.184 10 0 60169 17100.00000 0 1340409.622 -20784041.112 -14739440.350 10 0 60169 18000.00000 0 1846667.456 -18887141.676 -17054846.323 10 0 60169 18900.00000 0 2587718.226 -16786442.990 -19039254.268 10 0 60169 19800.00000 0 3574970.561 -14545340.336 -20654147.325 10 0 60169 20700.00000 0 4807588.155 -12230044.046 -21868172.599 10 0 60169 21600.00000 0 6272303.156 -9906957.785 -22657747.802 10 0 60169 22500.00000 0 7943761.149 -7640064.789 -23007518.198 10 0 60169 23400.00000 0 9785384.556 -5488430.256 -22910655.298 10 0 60169 24300.00000 0 11750719.630 -3503923.088 -22368991.650 10 0 60169 25200.00000 0 13785212.144 -1729251.020 -21392989.049 10 0 60169 26100.00000 0 15828338.831 -196390.174 -20001540.465 10 0 60169 27000.00000 0 17816006.714 1074526.317 -18221609.063 10 0 60169 27900.00000 0 19683121.027 2075815.023 -16087710.625 10 0 60169 28800.00000 0 21366215.023 2812319.634 -13641248.746 10 0 60169 29700.00000 0 22806032.027 3300956.584 -10929715.021 10 0 60169 30600.00000 0 23949951.671 3569748.685 -8005769.191 10 0 60169 31500.00000 0 24754158.385 3656388.128 -4926216.788 10 0 60169 32400.00000 0 25185460.753 3606390.201 -1750904.059 10 0 60169 33300.00000 0 25222684.775 3470916.478 1458448.196 10 0 60169 34200.00000 0 24857581.906 3304360.365 4639448.735 10 0 60169 35100.00000 0 24095213.152 3161798.106 7730253.908 10 0 60169 36000.00000 0 22953792.664 3096414.138 10670775.240 10 0 60169 36900.00000 0 21463997.123 3157010.776 13403852.307 10 0 60169 37800.00000 0 19667769.835 3385708.599 15876367.523 10 0 60169 38700.00000 0 17616669.744 3815935.717 18040280.689 10 0 60169 39600.00000 0 15369834.693 4470791.707 19853563.012 10 0 60169 40500.00000 0 12991644.348 5361856.022 21281012.463 10 0 60169 41400.00000 0 10549180.538 6488491.791 22294934.925 10 0 60169 42300.00000 0 8109590.996 7837674.931 22875678.339 10 0 60169 43200.00000 0 5737466.192 9384356.361 23012010.022 10 0 60169 44100.00000 0 3492338.017 11092342.773 22701330.398 10 0 60169 45000.00000 0 1426403.787 12915659.614 21949719.482 10 0 60169 45900.00000 0 -417430.674 14800339.878 20771815.562 10 0 60169 46800.00000 0 -2007108.550 16686564.480 19190528.646 10 0 60169 47700.00000 0 -3322516.557 18511065.256 17236594.222 10 0 60169 48600.00000 0 -4356072.234 20209690.616 14947975.916 10 0 60169 49500.00000 0 -5112780.941 21720026.966 12369128.360 10 0 60169 50400.00000 0 -5609761.619 22983966.488 9550134.379 10 0 60169 51300.00000 0 -5875262.556 23950113.959 6545732.995 10 0 60169 52200.00000 0 -5947209.797 24575931.864 3414256.968 10 0 60169 53100.00000 0 -5871350.406 24829533.829 216500.482 10 0 60169 54000.00000 0 -5699069.789 24691051.067 -2985460.957 10 0 60169 54900.00000 0 -5484976.029 24153514.383 -6129475.388 10 0 60169 55800.00000 0 -5284353.912 23223214.503 -9154520.363 10 0 60169 56700.00000 0 -5150596.754 21919525.474 -12001886.471 10 0 60169 57600.00000 0 -5132725.021 20274198.229 -14616315.333 10 0 60169 58500.00000 0 -5273096.915 18330153.704 -16947069.962 10 0 60169 59400.00000 0 -5605407.976 16139825.643 -18948916.887 10 0 60169 60300.00000 0 -6153064.475 13763121.926 -20583001.290 10 0 60169 61200.00000 0 -6927999.632 11265089.084 -21817598.525 10 0 60169 62100.00000 0 -7929983.120 8713376.725 -22628727.923 10 0 60169 63000.00000 0 -9146453.673 6175606.775 -23000617.384 10 0 60169 63900.00000 0 -10552882.778 3716756.269 -22926010.045 10 0 60169 64800.00000 0 -12113655.320 1396661.645 -22406307.275 10 0 60169 65700.00000 0 -13783431.465 -732252.519 -21451545.120 10 0 60169 66600.00000 0 -15508933.945 -2626926.762 -20080204.415 10 0 60169 67500.00000 0 -17231087.075 -4255221.526 -18318857.743 10 0 60169 68400.00000 0 -18887418.906 -5597009.550 -16201659.450 10 0 60169 69300.00000 0 -20414626.626 -6644761.049 -13769687.908 10 0 60169 70200.00000 0 -21751198.138 -7403597.996 -11070152.124 10 0 60169 71100.00000 0 -22839979.998 -7890816.021 -8155477.501 10 0 60169 72000.00000 0 -23630583.686 -8134894.741 -5082288.187 10 0 60169 72900.00000 0 -24081528.706 -8174039.020 -1910305.656 10 0 60169 73800.00000 0 -24162031.718 -8054313.458 1298814.900 10 0 60169 74700.00000 0 -23853365.720 -7827449.817 4482687.327 10 0 60169 75600.00000 0 -23149731.291 -7548420.983 7579412.389 10 0 60169 76500.00000 0 -22058602.546 -7272885.091 10528786.433 10 0 60169 77400.00000 0 -20600532.642 -7054608.899 13273476.530 10 0 60169 78300.00000 0 -18808426.606 -6942980.408 15760138.675 10 0 60169 79200.00000 0 -16726311.682 -6980716.718 17940456.830 10 0 60169 80100.00000 0 -14407656.607 -7201864.757 19772082.397 10 0 60169 81000.00000 0 -11913310.076 -7630179.897 21219455.892 10 0 60169 81900.00000 0 -9309144.417 -8277951.341 22254495.139 10 0 60169 82800.00000 0 -6663502.687 -9145324.199 22857137.026 10 0 60169 83700.00000 0 -4044555.264 -10220147.125 23015722.874 10 0 60169 84600.00000 0 -1517675.495 -11478352.308 22727220.472 10 0 60169 85500.00000 0 857057.070 -12884852.238 21997278.969 99